sat.trackr.live / text

‹ back to catalog

GLOBAL-12

NORAD 49772 · 2021-115BA

PAYLOAD ACTIVE UNKNOWN

§ Identity

Operator
Country
US
Launch date
2021-12-02
Launch site
AFETR
Launch vehicle
Mass (kg)
RCS (m²)

External: N2YO · Heavens-Above · Gunter

§ Orbital elements

Epoch: 2026-05-24T07:46:23.520576Z

Period
92.78 min
Inclination
53.1940°
Eccentricity
0.0003315
Mean motion
15.52091963 rev/d
Perigee alt
408.4 km
Apogee alt
412.9 km
Semi-major
6,788.8 km
B*
3.1162e-4
RAAN
159.1496°
Arg perigee
9.9942°
Mean anomaly
350.1134°
Rev number
25,219

§ Raw data

GLOBAL-121 49772U 21115BA  26144.32388334  .00018716  00000+0  31162-3 0  99982 49772  53.1940 159.1496 0003315   9.9942 350.1134 15.52091963252190

JSON: /api/v1/satellites/49772 · /tle

For live sub-satellite position, see the globe view (requires WebGL).

§ Visibility from observer

Set your observer location to see the next 7 days of passes ≥ 10°. The values pass through the URL so the page stays shareable.

No JS? Fill the form by hand. The geolocation button needs JavaScript.

§ Radio — SatNOGS DB

ModeDescriptionDownlinkUplink
GMSK UHF Unknown 401.435 MHz

1 transmitter · refreshed weekly from db.satnogs.org